Date String (YYYY-MM-DD hh:mm:ss) UTC,Instrument flags,Ambient pressure (hPa),Sample flow (lpm),Bypass flow (lpm),Sample temperature (°C),Ambient temperature (°C),ASC tube jacket temperature (°C),LED temperature (°C),Box temperature (°C),Sample RH (%),Span deviation,Mass concentration (μg/m³),Mass concentration (μg/m³),Mass concentration (μg/m³)
DateTimeUTC,F1_M11,P_M11,Q1_M11,Q2_M11,T1_M11,T2_M11,T3_M11,T4_M11,T5_M11,U1_M11,ZSPAN_M11,X0_M11,X2_M11,X1_M11
2023-05-20 07:00:00,,0838.1,5.01,0.00,28.3,26.7,00.0,36.6,29.9,26.8,0002.8,0141.70,0101.82,0096.00
2023-05-20 07:01:00,,0838.1,5.00,0.00,28.3,26.7,00.0,36.6,29.9,26.8,0002.9,0141.91,0102.06,0096.18
2023-05-20 07:02:00,,0838.2,5.00,0.00,28.3,26.7,00.0,36.6,29.9,26.8,0002.8,0141.94,0102.13,0096.23
2023-05-20 07:03:00,,0838.2,5.00,0.00,28.3,26.7,00.0,36.6,29.9,26.8,0002.8,0141.86,0102.12,0096.26
2023-05-20 07:04:00,,0838.1,5.00,0.00,28.3,26.7,00.0,36.6,29.9,26.8,0002.8,0141.92,0102.09,0096.18
2023-05-20 07:05:00,,0838.2,5.00,0.00,28.3,26.7,00.0,36.6,29.9,26.9,0002.8,0141.57,0102.03,0096.11
2023-05-20 07:06:00,,0838.2,5.01,0.00,28.3,26.7,00.0,36.6,29.9,26.9,0002.8,0141.29,0101.78,0095.91
2023-05-20 07:07:00,,0838.2,5.00,0.00,28.3,26.7,00.0,36.6,29.9,27.0,0002.8,0140.54,0101.44,0095.55
2023-05-20 07:08:00,,0838.2,4.98,0.00,28.3,26.7,00.0,36.6,29.9,27.0,0002.8,0140.07,0101.01,0095.14
2023-05-20 07:09:00,,0838.2,5.01,0.00,28.3,26.7,00.0,36.6,29.9,27.0,0002.8,0138.86,0100.51,0094.66
2023-05-20 07:10:00,,0838.1,5.00,0.00,28.3,26.7,00.0,36.6,29.9,27.0,0002.7,0137.96,0099.99,0094.18
2023-05-20 07:11:00,,0838.2,5.01,0.00,28.3,26.7,00.0,36.6,29.9,26.9,0002.6,0137.27,0099.45,0093.71
2023-05-20 07:12:00,,0838.2,4.98,0.00,28.3,26.6,00.0,36.6,29.9,26.9,0002.6,0136.23,0098.73,0093.09
2023-05-20 07:13:00,,0838.2,5.00,0.00,28.3,26.6,00.0,36.6,29.9,26.9,0002.6,0135.25,0098.07,0092.49
2023-05-20 07:14:00,,0838.2,5.00,0.00,28.3,26.6,00.0,36.6,29.9,26.9,0002.6,0134.53,0097.58,0091.99
2023-05-20 07:15:00,,0838.2,5.01,0.00,28.3,26.6,00.0,36.6,29.9,26.9,0002.6,0133.86,0097.00,0091.45
2023-05-20 07:16:00,,0838.2,5.00,0.00,28.3,26.6,00.0,36.6,29.9,26.8,0002.6,0133.71,0096.55,0090.98
2023-05-20 07:17:00,,0838.2,5.00,0.00,28.3,26.7,00.0,36.6,29.9,26.8,0002.6,0132.91,0096.24,0090.68
2023-05-20 07:18:00,,0838.1,5.00,0.00,28.3,26.6,00.0,36.6,29.9,26.8,0002.6,0132.67,0095.99,0090.53
2023-05-20 07:19:00,,0838.1,5.00,0.00,28.3,26.6,00.0,36.6,29.9,26.8,0002.5,0132.35,0095.89,0090.47
2023-05-20 07:20:00,,0838.1,5.00,0.00,28.3,26.6,00.0,36.6,29.9,26.8,0002.5,0132.75,0095.74,0090.33
2023-05-20 07:21:00,,0838.1,5.00,0.00,28.3,26.6,00.0,36.6,29.9,26.8,0002.6,0132.56,0095.53,0090.09
2023-05-20 07:22:00,,0838.1,4.99,0.00,28.3,26.6,00.0,36.6,29.9,26.8,0002.6,0132.15,0095.30,0089.89
2023-05-20 07:23:00,,0838.0,5.00,0.00,28.3,26.6,00.0,36.6,29.9,26.8,0002.6,0131.99,0095.25,0089.83
2023-05-20 07:24:00,,0838.0,5.00,0.00,28.3,26.6,00.0,36.6,29.9,26.8,0002.6,0131.84,0095.24,0089.86
2023-05-20 07:25:00,,0838.1,5.00,0.00,28.3,26.6,00.0,36.6,29.9,26.8,0002.5,0132.05,0095.06,0089.79
2023-05-20 07:26:00,,0838.1,4.99,0.00,28.3,26.6,00.0,36.6,29.9,26.7,0002.5,0132.26,0095.03,0089.83
2023-05-20 07:27:00,,0838.2,5.00,0.00,28.3,26.6,00.0,36.6,29.9,26.8,0002.5,0131.71,0094.96,0089.84
2023-05-20 07:28:00,,0838.2,5.01,0.00,28.3,26.6,00.0,36.6,29.9,26.7,0002.6,0132.78,0095.02,0089.84
2023-05-20 07:29:00,,0838.1,4.99,0.00,28.3,26.7,00.0,36.6,29.9,26.7,0002.6,0133.02,0094.99,0089.80
2023-05-20 07:30:00,,0838.1,4.99,0.00,28.3,26.7,00.0,36.6,29.9,26.7,0002.7,0132.66,0094.90,0089.72
2023-05-20 07:31:00,,0838.2,4.99,0.00,28.3,26.7,00.0,36.6,29.9,26.7,0002.7,0132.70,0095.03,0089.75
2023-05-20 07:32:00,,0838.2,5.01,0.00,28.3,26.7,00.0,36.6,29.9,26.7,0002.7,0132.88,0095.27,0089.91
2023-05-20 07:33:00,,0838.1,5.02,0.00,28.3,26.7,00.0,36.6,29.9,26.7,0002.7,0133.12,0095.41,0090.06
2023-05-20 07:34:00,,0838.1,5.00,0.00,28.3,26.7,00.0,36.6,29.9,26.7,0002.7,0133.50,0095.63,0090.26
2023-05-20 07:35:00,,0838.1,4.98,0.00,28.3,26.7,00.0,36.6,29.9,26.7,0002.8,0134.15,0095.78,0090.38
2023-05-20 07:36:00,,0838.0,5.00,0.00,28.3,26.7,00.0,36.6,29.9,26.6,0002.8,0135.05,0096.07,0090.58
2023-05-20 07:37:00,,0838.0,5.00,0.00,28.3,26.7,00.0,36.6,29.9,26.6,0002.8,0134.60,0096.17,0090.70
2023-05-20 07:38:00,,0838.0,5.01,0.00,28.3,26.7,00.0,36.6,29.9,26.6,0002.7,0134.87,0096.20,0090.72
2023-05-20 07:39:00,,0838.0,5.00,0.00,28.3,26.7,00.0,36.6,29.9,26.6,0002.7,0134.51,0096.19,0090.76
2023-05-20 07:40:00,,0837.9,5.00,0.00,28.3,26.7,00.0,36.6,29.9,26.6,0002.7,0134.16,0096.26,0090.86
2023-05-20 07:41:00,,0838.0,5.00,0.00,28.3,26.7,00.0,36.6,29.9,26.6,0002.7,0133.92,0096.34,0090.93
2023-05-20 07:42:00,,0838.0,5.00,0.00,28.3,26.7,00.0,36.6,29.9,26.6,0002.7,0133.57,0096.24,0090.92
2023-05-20 07:43:00,,0838.0,5.00,0.00,28.3,26.7,00.0,36.6,29.9,26.7,0002.7,0133.13,0096.11,0090.90
2023-05-20 07:44:00,,0838.0,5.00,0.00,28.3,26.7,00.0,36.6,29.9,26.7,0002.6,0133.18,0096.08,0090.90
2023-05-20 07:45:00,,0838.0,5.01,0.00,28.3,26.7,00.0,36.6,29.9,26.7,0002.7,0133.93,0096.20,0090.95
2023-05-20 07:46:00,,0838.0,5.00,0.00,28.3,26.7,00.0,36.6,29.9,26.6,0002.7,0133.99,0096.32,0091.06
2023-05-20 07:47:00,,0837.9,5.00,0.00,28.3,26.6,00.0,36.6,29.9,26.6,0002.6,0133.80,0096.34,0091.10
2023-05-20 07:48:00,,0837.9,5.00,0.00,28.3,26.6,00.0,36.6,29.9,26.6,0002.7,0134.34,0096.43,0091.15
2023-05-20 07:49:00,,0837.9,4.99,0.00,28.3,26.6,00.0,36.6,29.9,26.6,0002.7,0134.53,0096.70,0091.33
2023-05-20 07:50:00,,0837.9,4.99,0.00,28.3,26.6,00.0,36.6,29.9,26.5,0002.7,0134.38,0096.91,0091.55
2023-05-20 07:51:00,,0837.9,4.99,0.00,28.3,26.7,00.0,36.6,29.9,26.5,0002.7,0134.70,0097.11,0091.73
2023-05-20 07:52:00,,0838.0,4.99,0.00,28.3,26.7,00.0,36.6,29.9,26.5,0002.7,0135.44,0097.40,0091.99
2023-05-20 07:53:00,,0837.9,5.00,0.00,28.3,26.7,00.0,36.6,29.9,26.5,0002.6,0136.09,0097.71,0092.25
2023-05-20 07:54:00,,0838.0,5.00,0.00,28.3,26.7,00.0,36.6,29.9,26.6,0002.6,0136.60,0097.86,0092.33
2023-05-20 07:55:00,,0838.0,5.00,0.00,28.3,26.7,00.0,36.6,29.9,26.5,0002.6,0137.13,0098.06,0092.49
2023-05-20 07:56:00,,0838.0,5.00,0.00,28.3,26.7,00.0,36.6,29.9,26.5,0002.6,0136.84,0098.18,0092.59
2023-05-20 07:57:00,,0838.0,5.00,0.00,28.3,26.7,00.0,36.6,29.9,27.4,0002.6,0136.25,0097.92,0092.35
2023-05-20 07:58:00,,0838.0,5.00,0.00,28.3,26.7,00.0,36.6,29.9,27.9,0002.6,0134.99,0097.43,0091.88
2023-05-20 07:59:00,,0838.0,5.00,0.00,28.3,26.7,00.0,36.6,29.9,27.3,0002.6,0134.13,0097.31,0091.76
